FW0099 Weather Reports


Display with metric or nautical units.
time (UTC)temp
F
wind
direction
speed
MPH
gust
MPH
rain 1hr
in
rain 24hr
in
rain mn
in
humidity
%
barometer
mb
20260506174237 50 88 0.0 1.0 0.00 0.13 0.13 78 1009.1
20260506173217 50 0.0 0.0 0.00 0.13 0.13 78 1009.0
20260506172217 50 0.0 3.0 0.00 0.13 0.13 77 1008.9
20260506171217 50 0.0 0.0 0.00 0.13 0.13 77 1008.8
20260506170237 50 0.0 0.0 0.00 0.13 0.13 76 1008.7
20260506165217 51 0.0 0.0 0.00 0.13 0.13 75 1008.6
20260506164217 51 5 0.0 1.0 0.00 0.13 0.13 75 1008.6
20260506163216 51 0.0 0.0 0.00 0.13 0.13 74 1008.5
20260506162217 51 0.0 1.0 0.00 0.13 0.13 73 1008.5
20260506161217 52 0.0 0.0 0.00 0.13 0.13 72 1008.5
20260506160217 52 0.0 0.0 0.00 0.13 0.13 72 1008.4
20260506155237 52 0.0 1.0 0.00 0.13 0.13 69 1008.4
20260506154216 53 316 0.0 3.0 0.00 0.13 0.13 68 1008.3
20260506153216 53 342 0.0 2.0 0.00 0.13 0.13 67 1008.3
20260506152217 53 319 4.0 8.0 0.00 0.13 0.13 67 1008.2
20260506151217 53 0.0 0.0 0.00 0.13 0.13 68 1008.2
20260506150217 53 0.0 0.0 0.00 0.13 0.13 69 1008.2
20260506145216 53 0.0 0.0 0.00 0.13 0.13 67 1008.2
20260506144216 52 315 0.0 2.0 0.00 0.13 0.13 69 1008.2
20260506143237 52 0.0 4.0 0.00 0.13 0.13 70 1008.1
20260506142216 52 0.0 0.0 0.00 0.13 0.13 72 1008.1
20260506141217 52 337 1.0 3.0 0.00 0.13 0.13 71 1008.2
20260506140237 52 0.0 0.0 0.00 0.13 0.13 72 1008.1
20260506135236 52 0.0 1.0 0.00 0.13 0.13 72 1008.1
20260506134216 52 333 1.0 7.0 0.00 0.13 0.13 73 1008.1
20260506133216 52 0.0 0.0 0.00 0.13 0.13 75 1008.1
20260506132216 52 323 0.0 3.0 0.00 0.13 0.13 76 1008.1
20260506131216 52 0.0 0.0 0.00 0.13 0.13 78 1008.0
20260506130216 52 0.0 0.0 0.00 0.13 0.13 77 1008.0
20260506125216 52 0.0 0.0 0.00 0.13 0.13 76 1007.9
20260506124236 53 0.0 0.0 0.00 0.13 0.13 76 1007.9
20260506123216 53 0.0 0.0 0.00 0.13 0.13 76 1007.8
20260506122216 52 326 0.0 4.0 0.00 0.13 0.13 78 1007.7
20260506121216 52 0.0 0.0 0.00 0.13 0.13 79 1007.7
20260506120236 51 0.0 1.0 0.00 0.13 0.13 81 1007.7
20260506115216 51 0.0 0.0 0.00 0.14 0.13 82 1007.6
20260506114216 50 0.0 0.0 0.00 0.14 0.13 83 1007.7
20260506113216 50 0.0 2.0 0.00 0.14 0.13 82 1007.6
20260506112216 51 10 0.0 7.0 0.00 0.14 0.13 83 1007.5
20260506111236 51 326 0.0 4.0 0.00 0.14 0.13 85 1007.5
20260506110236 50 0.0 0.0 0.00 0.14 0.13 85 1007.5
20260506105236 50 320 1.0 6.0 0.00 0.14 0.13 86 1007.5
20260506104236 50 0.0 0.0 0.00 0.14 0.13 86 1007.5
20260506103216 50 13 0.0 1.0 0.00 0.14 0.13 85 1007.4
20260506102216 50 330 1.0 7.0 0.00 0.14 0.13 86 1007.3
20260506101216 51 360 0.0 1.0 0.00 0.14 0.13 86 1007.2
20260506100216 51 15 0.0 1.0 0.00 0.14 0.13 86 1007.1
20260506095216 51 340 0.0 4.0 0.00 0.14 0.13 88 1007.1
20260506094236 51 323 1.0 5.0 0.00 0.14 0.13 88 1007.0
20260506093236 51 337 1.0 5.0 0.00 0.14 0.13 88 1007.0
20260506092216 51 0.0 3.0 0.00 0.14 0.13 89 1006.9
20260506091216 51 0.0 4.0 0.00 0.14 0.13 89 1006.8
20260506090216 50 319 0.0 6.0 0.00 0.14 0.13 89 1006.7
20260506085216 50 0.0 0.0 0.00 0.14 0.13 89 1006.7
20260506084217 49 0.0 0.0 0.00 0.14 0.13 89 1006.7
20260506083216 50 331 0.0 1.0 0.00 0.14 0.13 89 1006.6
20260506082216 50 315 3.0 9.0 0.01 0.14 0.13 90 1006.5
20260506081216 49 329 0.0 2.0 0.01 0.14 0.13 90 1006.4
20260506080216 49 345 1.0 8.0 0.01 0.14 0.13 90 1006.4
20260506073216 49 343 2.0 7.0 0.01 0.13 0.12 90 1006.4
20260506072236 49 309 2.0 6.0 0.00 0.12 0.11 90 1006.4
20260506071216 48 331 0.0 4.0 0.00 0.12 0.11 90 1006.3
20260506070236 48 0.0 4.0 0.01 0.12 0.11 90 1006.3
20260506062216 48 0.0 0.0 0.01 0.11 0.11 90 1006.0
20260506061216 48 0.0 2.0 0.01 0.11 0.11 90 1006.0
20260506060216 48 332 0.0 3.0 0.00 0.11 0.10 90 1005.9
20260506051216 47 0.0 0.0 0.00 0.10 0.09 90 1005.9
20260506050236 47 321 0.0 3.0 0.02 0.11 0.09 90 1005.8
20260506044235 47 0.0 1.0 0.03 0.11 0.09 90 1005.9
20260506043216 47 322 1.0 5.0 0.04 0.11 0.09 90 1005.8
20260506042216 47 0.0 0.0 0.03 0.10 0.08 90 1005.8
20260506041215 47 0.0 0.0 0.03 0.10 0.08 90 1005.8
20260506040215 47 328 4.0 9.0 0.02 0.08 0.07 90 1005.8
20260506035215 47 0.0 0.0 0.01 0.07 0.06 90 1005.9
20260506034216 47 331 1.0 4.0 0.00 0.07 0.05 90 1006.0
20260506033216 47 336 0.0 1.0 0.00 0.06 0.04 90 1006.0
20260506032216 47 346 0.0 3.0 0.00 0.06 0.04 90 1006.1
20260506031216 47 0.0 0.0 0.00 0.06 0.04 89 1006.1
20260506030216 47 335 0.0 1.0 0.00 0.06 0.04 89 1006.2
20260506025215 47 330 2.0 8.0 0.00 0.06 0.04 89 1006.3
20260506024215 47 319 2.0 6.0 0.00 0.07 0.04 89 1006.3
20260506023215 47 0.0 0.0 0.00 0.06 0.03 89 1006.4
20260506022215 47 322 0.0 3.0 0.00 0.07 0.03 89 1006.4
20260506021216 47 348 2.0 8.0 0.00 0.07 0.03 89 1006.4
20260506020215 47 322 1.0 4.0 0.00 0.11 0.03 89 1006.5
20260506015215 47 318 0.0 4.0 0.00 0.15 0.03 89 1006.5
20260506014216 48 351 0.0 4.0 0.00 0.20 0.03 89 1006.6
20260506013215 48 0.0 0.0 0.00 0.24 0.03 89 1006.6
20260506012215 48 0.0 0.0 0.00 0.31 0.03 89 1006.6
20260506011216 48 0.0 0.0 0.00 0.33 0.03 89 1006.6
20260506010215 48 0.0 0.0 0.00 0.35 0.03 89 1006.7
20260506005215 48 0.0 0.0 0.00 0.36 0.03 89 1006.8
20260506004215 48 0.0 0.0 0.00 0.36 0.03 89 1006.9
20260506003215 48 0.0 0.0 0.00 0.37 0.03 89 1006.9
20260506002215 48 0.0 0.0 0.01 0.38 0.03 89 1007.0
20260506001215 48 0.0 0.0 0.00 0.38 0.02 89 1007.0
20260506000255 48 0.0 0.0 0.00 0.38 0.02 89 1007.1
20260505235215 48 0.0 0.0 0.01 0.38 0.02 89 1007.1
20260505234215 48 324 0.0 4.0 0.01 0.38 0.02 89 1007.2
20260505233215 49 0.0 0.0 0.01 0.39 0.02 89 1007.3
20260505232215 49 0.0 0.0 0.00 0.38 0.01 89 1007.3
20260505231215 49 0.0 0.0 0.01 0.38 0.01 89 1007.3
20260505230215 49 0.0 0.0 0.01 0.38 0.01 88 1007.4
20260505225215 49 0.0 0.0 0.00 0.37 0.00 88 1007.4
20260505224235 49 0.0 0.0 0.00 0.37 0.00 88 1007.5
20260505223215 49 335 1.0 5.0 0.00 0.37 0.00 88 1007.5
20260505222215 49 0.0 3.0 0.00 0.38 0.00 88 1007.5
20260505221235 49 336 0.0 1.0 0.00 0.37 0.00 88 1007.6
20260505220215 49 0.0 0.0 0.00 0.38 0.00 88 1007.7
20260505215215 49 0.0 0.0 0.00 0.38 0.38 88 1007.7
20260505214255 50 0.0 0.0 0.00 0.39 0.38 88 1007.7
20260505213215 50 0.0 0.0 0.00 0.40 0.38 88 1007.7
20260505212235 50 0.0 0.0 0.00 0.40 0.38 87 1007.8
20260505211235 50 0.0 3.0 0.00 0.40 0.38 87 1007.9
20260505210215 50 0.0 0.0 0.00 0.40 0.38 87 1007.9
20260505205215 50 0.0 1.0 0.00 0.40 0.38 87 1008.0
20260505204215 50 0.0 0.0 0.00 0.40 0.38 87 1008.0
20260505203215 50 0.0 0.0 0.00 0.40 0.38 87 1008.0
20260505202215 50 279 0.0 1.0 0.00 0.40 0.38 87 1008.0
20260505201215 50 0.0 0.0 0.00 0.40 0.38 87 1008.0
20260505200215 50 0.0 0.0 0.00 0.40 0.38 87 1007.9
20260505195215 50 0.0 0.0 0.00 0.40 0.38 87 1007.9
20260505194215 50 0.0 1.0 0.00 0.40 0.38 87 1007.8
20260505193215 50 0.0 0.0 0.00 0.40 0.38 87 1007.7
20260505192235 50 0.0 0.0 0.00 0.41 0.38 87 1007.6
20260505191215 50 0.0 0.0 0.00 0.41 0.38 87 1007.6
20260505190215 50 0.0 0.0 0.00 0.42 0.38 87 1007.5
20260505185215 50 333 0.0 1.0 0.00 0.42 0.38 87 1007.5
20260505184215 51 0.0 0.0 0.00 0.42 0.38 87 1007.5
20260505183215 51 0.0 1.0 0.00 0.42 0.38 87 1007.5
20260505182217 51 0.0 0.0 0.00 0.42 0.38 87 1007.4
20260505181217 51 0.0 0.0 0.00 0.42 0.38 87 1007.5
20260505180217 51 0.0 0.0 0.00 0.42 0.38 87 1007.6
20260505175217 51 0.0 0.0 0.00 0.42 0.38 87 1007.6